SCP
0 0 0 0 0 0 0 0 0 0 0 0 0 0 0 0 0 0 0 0 0 0 0 0 0 0 0 0 0 0 0 0 0 0 0 0 0 0 0 0 0 0 0
0 0 0 0 0 0 0 0 0 0 0 0 0 0 0 0 0 0 0 0 0 0 0 0 0 0 0 0 0 0 0 0 0 0 0 0 0 0 0 0 0 0 0
0 0 0 0 0 0 0 0 0 0 0 0 0 0 0 0 0 0 0 0 0 0 0 0 0 0 0 0 0 0 0 0 0 0 0 0 0 0 0 0 0 0 0
0 0 0 0 0 0 0 0 0 0 0 0 0 0 0 0 0 0 0 0 0 0 0 0 0 0 0 0 0 0 0 0 0 0 0 0 0 0 0 0 0 0 0
0 0 0 0 0 0 0 0 0 0 0 0 0 0 0 0 0 0 0 0 0 0 0 0 0 0 0 0 0 0 0 0 0 0 0 0 0 0 0 0 0 0 0
0 0 0 0 0 0 0 0 0 0 0 0 0 0 0 0 0 0 0 0 0 0 0 0 0 0 0 0 0 0 0 0 0 0 0 0 0 0 0 0 0 0 0
0 0 0 0 0 0 0 0 0 0 0 0 0 0 0 0 0 0 0 0 0 0 0 0 0 0 0 0 0 0 0 0 0 0 0 0 0 0 0 0 0 0 0
0 0 0 0 0 0 0 0 0 0 0 0 0 0 0 0 0 0 0 0 0 0 0 0 0 0 0 0 0 0 0 0 0 0 0 0 0 0 0 0 0 0 0
0 0 0 0 0 0 0 0 0 0 0 0 0 0 0 0 0 0 0 0 0 0 0 0 0 0 0 0 0 0 0 0 0 0 0 0 0 0 0 0 0 0 0
0 0 0 0 0 0 0 0 0 0 0 0 0 0 0 0 0 0 0 0 0 0 0 0 -0 0 0 0 0 0 0 0 0 0 0 0 0 0 0 0 0 0 0
0 0 0 0 0 0 0 0 0 0 0 0 0 0 0 0 0 0 0 0 0 0 0 0 0 0 0 0 -0 0 0 0 0 0 0 0 0 0 0 0 0 0 0
0 0 0 0 0 0 0 0 0 0 0 0 0 0 0 0 0 0 0 0 0 0 0 0 0 0 0 -0 -0 -0 -0 0 0 0 0 0 0 0 0 0 0 0 0
0 0 0 0 0 0 0 0 0 0 0 0 0 0 0 0 0 0 0 0 0 0 0 0 0 0 0 0 -0 -0 -0 0 0 0 0 0 0 0 0 0 0 0 0
0 0 0 0 0 0 0 0 0 0 0 0 0 0 0 0 0 0 0 0 0 0 0 0 0 0 0 0 -0 0 0 0 0 0 0 0 0 0 0 0 0 0 0
0 0 0 0 0 0 0 0 0 0 0 0 0 0 0 0 0 0 0 0 0 0 0 0 0 0 0 0 0 0 0 0 0 0 0 0 0 0 -0 -0 0 0 -0
0 0 0 0 0 0 0 0 0 0 0 0 0 0 0 0 0 0 -0 -0 -0 0 0 0 0 0 -0 0 -0 -0 0 0 0 0 0 0 0 0 0 0 0 -0 0
0 0 0 0 0 0 0 0 0 0 -0 -0 -0 0 0 0 -0 -0 -0 -0 0 0 0 0 0 -0 -0 -0 -0 -0 0 0 0 0 0 0 0 0 0 0 0 -0 -0
0 0 0 0 0 0 0 0 0 0 0 0 0 -0 -0 -0 -0 -0 -0 0 0 0 0 0 0 0 0 0 0 0 0 0 0 0 0 0 0 0 0 0 0 -0 -0
0 0 0 0 0 0 0 0 0 0 0 -0 -0 -0 -0 -0 0 0 0 0 0 0 0 0 0 0 0 0 0 0 0 0 0 0 0 0 0 0 0 0 -0 -0 -0
0 0 0 0 0 0 0 0 -0 -0 -0 -0 -0 -0 -0 -0 0 0 0 0 0 0 0 0 0 0 0 0 0 0 0 0 0 0 0 0 0 0 0 0 0 0 0
0 0 0 0 0 0 0 0 0 0 -0 -0 -0 0 0 0 0 0 0 0 0 0 0 0 0 0 0 0 0 0 0 0 0 0 0 0 -0 0 0 0 0 0 0
0 0 0 0 0 0 0 0 0 0 0 -0 -0 -0 -0 -0 -0 -0 -0 -0 -0 -0 -0 -0 -0 -0 -0 -0 0 0 0 0 0 0 0 0 -0 -0 -0 -0 -0 0 0
0 0 0 0 0 0 0 0 0 0 0 -0 -0 -0 -0 -0 -0 -0 -0 -0 -0 -0 -0 -0 -0 -0 -0 -0 -0 -0 0 0 0 0 -0 -0 -0 -0 -0 -0 -0 0 0
0 0 0 0 0 0 0 0 0 0 0 0 0 0 0 0 0 0 -0 -0 -0 -0 -0 -0 -0 -0 -0 -0 -0 -0 -0 0 0 0 -0 -0 -0 -0 -0 -0 -0 -0 0
0 0 0 0 0 0 0 0 0 0 0 0 0 0 0 0 0 0 0 0 -0 -0 -0 -0 -0 0 0 0 0 -0 0 -0 -0 -0 0 -0 -0 -0 -0 -0 -0 -0 -0
0 0 0 0 0 0 0 0 0 0 0 0 0 0 0 0 0 0 0 0 0 0 0 0 0 0 0 0 0 0 0 -0 -0 -0 0 0 -0 -0 -0 -0 -0 -0 0
Wind_Speed_500mb
39 39 33 31 26 18 13 8 8 6 7 11 15 19 23 28 34 37 41 44 44 41 37 37 38 39 37 37 37 39 43 47 59 57 52 55 59 60 62 58 60 59 56
49 41 32 24 16 8 3 3 6 8 11 15 20 25 29 35 39 42 44 41 39 40 36 40 43 40 41 41 42 52 53 58 59 69 74 79 74 67 59 65 60 54 55
32 26 18 11 6 3 7 11 14 16 19 22 26 30 35 39 40 41 38 38 39 38 42 50 49 41 43 47 57 61 64 67 72 75 82 83 81 75 72 59 53 51 45
23 16 10 3 4 10 14 16 18 21 23 25 29 34 37 37 36 34 33 39 38 41 47 54 38 42 53 57 56 63 64 65 69 74 81 82 83 84 78 67 51 45 45
15 10 4 3 8 11 14 18 20 23 26 29 32 34 32 29 25 31 36 38 41 47 50 39 42 51 52 49 58 66 66 71 75 80 86 85 79 72 74 71 61 49 46
6 1 3 7 10 13 17 21 24 26 28 30 30 27 23 24 32 34 38 40 43 48 48 38 48 49 46 54 59 59 61 62 68 73 77 82 89 79 77 74 64 53 44
4 4 7 9 13 17 20 22 25 25 25 23 20 19 23 29 40 40 41 42 46 47 40 46 44 43 45 52 60 68 68 67 63 62 68 71 74 70 67 68 67 61 49
8 6 8 9 13 17 17 18 18 18 17 14 16 26 30 36 44 42 39 40 42 39 38 38 42 37 42 58 70 73 69 69 70 70 69 70 66 66 59 56 56 60 59
7 7 6 8 13 18 16 15 14 10 13 16 21 28 34 34 39 42 40 37 38 32 36 32 34 40 52 61 68 69 67 67 67 71 74 70 60 54 46 46 58 54 56
7 7 9 10 10 12 13 13 14 15 18 20 24 28 34 36 43 39 39 32 33 33 30 33 37 43 51 58 60 58 65 66 72 76 67 54 47 46 36 37 46 58 57
16 15 13 10 10 13 16 17 17 18 17 19 22 26 30 34 31 30 30 28 30 30 30 32 36 41 44 47 52 54 57 62 65 62 62 47 41 38 37 33 33 43 54
19 15 12 12 13 15 19 22 24 22 19 17 19 21 24 25 25 23 21 21 23 27 28 30 30 32 36 45 52 63 61 57 58 56 53 38 38 38 35 40 34 28 41
19 21 21 19 20 22 23 23 21 21 21 23 24 23 23 26 26 20 17 18 18 20 25 30 29 32 33 43 54 63 70 64 56 54 53 40 36 34 33 36 32 30 28
16 19 23 23 24 24 24 26 27 29 32 28 28 29 30 31 34 32 31 29 28 26 26 29 31 34 40 53 59 62 66 72 70 64 56 44 38 32 29 28 34 25 28
14 16 19 19 19 17 18 21 23 35 37 33 32 30 34 37 41 41 40 41 41 40 38 36 36 40 43 53 58 65 68 73 80 76 62 53 45 40 36 33 33 34 32
16 14 14 13 11 13 14 16 29 29 31 33 33 32 29 33 34 34 33 33 36 37 37 39 43 47 53 57 60 69 73 77 84 83 70 59 52 46 39 33 34 38 45
15 16 15 14 13 13 15 16 14 22 28 27 28 30 32 34 35 34 30 29 32 31 34 40 46 51 55 57 58 66 74 76 83 86 78 69 60 50 40 32 26 27 30
14 15 16 16 15 16 19 19 19 21 23 25 30 32 32 32 33 31 29 25 32 40 44 45 44 47 51 57 59 65 73 78 85 92 89 78 67 52 44 34 22 25 10
15 16 16 15 15 16 16 20 22 25 27 27 30 31 31 32 33 36 39 44 45 45 46 43 45 49 52 56 58 66 76 84 88 93 97 87 78 56 44 33 19 16 9
18 18 16 15 16 18 20 22 25 27 29 32 36 41 40 40 43 45 48 48 46 45 46 46 46 49 51 57 61 68 79 88 91 92 99 95 84 65 51 30 13 10 6
22 22 22 22 23 24 24 24 25 25 25 27 32 37 37 40 42 43 44 45 45 45 47 48 46 48 51 56 59 68 77 88 92 92 97 98 88 77 59 32 8 7 2
27 27 26 26 25 25 24 24 24 24 25 25 25 31 36 36 37 39 39 41 42 42 44 46 45 46 50 54 60 68 77 86 91 93 93 95 91 80 60 44 7 5 5
28 28 27 26 25 24 22 22 23 23 24 27 26 27 33 34 35 37 39 40 40 40 43 43 43 47 50 53 58 66 73 81 83 88 84 93 93 81 67 46 24 4 4
27 26 25 24 24 22 22 22 22 25 25 26 29 28 29 32 33 34 37 39 40 39 39 41 43 48 51 55 61 65 69 71 74 77 78 79 85 77 64 48 33 19 8
27 26 24 24 23 22 21 23 24 25 24 27 29 31 30 31 33 35 37 37 40 41 41 42 43 50 54 55 61 63 66 69 70 70 73 73 76 74 66 53 37 24 15
26 26 26 26 26 26 26 24 25 27 27 28 31 33 35 34 35 37 39 40 42 43 44 43 44 48 51 55 63 62 64 66 67 68 68 72 67 74 65 58 45 33 18
Wind_Direction_500mb
154 168 164 159 160 158 156 185 225 254 289 306 314 319 323 326 325 323 318 315 316 319 318 317 318 317 307 305 302 299 295 293 287 292 295 299 298 299 299 299 302 303 306
150 153 156 155 153 140 139 264 286 302 308 313 317 323 326 325 323 321 318 319 321 320 321 318 313 311 311 308 306 306 300 301 292 291 303 307 307 311 304 305 302 298 301
145 142 137 115 83 347 301 299 300 303 308 312 317 321 322 321 321 319 321 321 316 318 317 318 314 310 312 311 311 310 312 311 309 302 302 307 308 308 309 306 299 294 296
138 133 125 119 275 286 288 287 295 301 302 307 310 314 316 318 319 318 317 315 313 313 315 321 314 313 315 317 316 315 312 309 309 309 309 304 304 308 306 304 300 296 297
133 119 79 325 298 288 285 287 287 291 294 297 306 309 312 317 310 309 312 312 313 314 318 316 314 315 315 315 313 314 311 308 307 307 307 308 301 297 297 299 291 294 297
125 106 257 264 274 287 287 287 283 281 288 298 304 304 309 308 304 306 308 312 312 314 318 315 317 318 319 316 317 315 311 309 311 310 310 305 304 297 298 293 287 286 292
80 10 341 332 317 302 295 290 287 290 297 304 309 313 309 308 304 299 297 306 313 316 319 322 322 320 318 316 318 321 324 319 315 309 304 304 307 304 299 287 285 281 279
56 24 358 348 332 324 319 314 311 312 311 310 306 308 311 305 302 305 304 304 309 315 325 327 323 321 320 317 317 318 319 314 318 318 310 302 305 305 290 286 286 284 282
32 15 344 354 350 348 353 341 339 344 319 304 302 309 311 314 315 314 306 306 310 314 328 333 326 324 321 323 324 321 320 322 322 318 310 308 307 311 291 271 270 276 279
41 34 24 9 1 8 1 344 339 329 315 307 310 318 319 317 316 318 316 315 318 326 336 351 350 340 329 327 328 331 327 326 325 326 322 315 307 312 312 284 264 263 273
43 39 35 25 19 9 359 353 351 342 332 330 326 328 325 322 324 328 329 327 332 342 343 352 351 338 330 337 342 338 333 327 328 327 328 321 320 317 312 309 290 263 261
51 43 35 43 43 24 16 12 6 358 348 349 348 352 347 343 339 333 325 323 337 346 346 353 347 336 353 3 3 359 347 342 338 335 334 333 330 329 316 307 296 278 262
54 58 58 60 52 37 25 20 13 8 2 358 1 356 1 360 3 358 357 353 344 352 351 356 345 345 1 10 7 3 5 359 351 346 340 327 329 328 331 325 301 293 276
58 55 56 53 43 33 28 26 22 18 17 11 6 358 358 357 1 8 5 1 359 347 342 346 343 348 3 12 11 5 5 7 6 356 346 339 317 307 309 318 314 299 278
59 55 48 41 41 41 37 28 25 8 5 2 1 358 353 352 353 355 348 348 351 347 337 332 340 348 358 5 3 2 3 3 5 3 353 343 337 316 298 297 303 301 278
72 66 51 55 49 48 46 22 4 5 0 358 355 355 356 351 347 344 341 338 339 339 339 346 355 355 2 3 1 0 1 2 6 5 359 352 345 338 324 307 282 282 288
73 71 66 62 58 51 37 28 15 356 3 10 10 7 4 4 1 357 354 347 348 349 358 3 6 4 3 5 1 359 359 2 5 7 6 2 352 346 336 323 314 316 315
75 71 67 62 51 37 23 22 25 26 24 21 25 22 18 16 14 15 15 18 22 24 23 17 10 4 2 2 1 359 2 4 4 6 7 6 0 352 347 340 333 346 310
78 73 62 49 39 31 32 34 39 40 38 34 35 37 33 30 28 31 32 32 28 24 21 17 10 8 5 3 2 1 5 6 4 4 4 5 4 359 347 347 344 344 212
75 71 66 62 56 57 55 53 50 46 40 36 31 29 27 29 29 28 27 26 24 20 16 15 10 8 3 1 2 1 6 7 7 5 5 5 7 6 358 349 334 339 22
81 79 77 76 73 68 64 60 54 48 39 32 31 27 23 27 24 23 21 19 17 15 14 13 9 5 3 0 358 1 4 7 7 7 6 6 9 5 7 6 331 350 42
84 84 81 77 71 64 58 52 45 38 31 26 22 21 27 25 21 19 15 15 14 10 8 9 7 2 1 0 357 0 3 5 8 8 4 8 11 13 16 28 53 12 213
80 76 74 71 65 58 51 46 40 33 27 23 18 15 16 17 16 14 12 11 9 7 6 4 3 3 3 3 2 2 2 5 7 9 4 7 11 15 22 31 43 355 167
75 73 71 66 61 53 46 38 32 27 26 19 17 15 12 12 11 9 9 9 7 4 0 1 1 360 3 4 3 6 8 6 7 8 9 10 11 18 23 22 21 23 277
68 67 66 61 55 48 40 35 30 26 21 17 14 12 9 6 5 5 4 4 3 1 359 359 359 358 358 4 4 5 7 7 6 6 11 13 12 17 24 25 22 12 4
58 57 56 53 48 44 40 33 27 22 17 12 10 8 7 4 2 0 360 358 357 357 359 358 357 357 358 354 359 2 3 3 5 4 12 12 13 15 19 24 22 15 8
Wind_Speed_850mb
39 39 33 31 26 18 13 8 8 6 7 11 15 19 23 28 34 37 41 44 44 41 37 37 38 39 37 37 37 39 43 47 59 57 52 55 59 60 62 58 60 59 56
49 41 32 24 16 8 3 3 6 8 11 15 20 25 29 35 39 42 44 41 39 40 36 40 43 40 41 41 42 52 53 58 59 69 74 79 74 67 59 65 60 54 55
32 26 18 11 6 3 7 11 14 16 19 22 26 30 35 39 40 41 38 38 39 38 42 50 49 41 43 47 57 61 64 67 72 75 82 83 81 75 72 59 53 51 45
23 16 10 3 4 10 14 16 18 21 23 25 29 34 37 37 36 34 33 39 38 41 47 54 38 42 53 57 56 63 64 65 69 74 81 82 83 84 78 67 51 45 45
15 10 4 3 8 11 14 18 20 23 26 29 32 34 32 29 25 31 36 38 41 47 50 39 42 51 52 49 58 66 66 71 75 80 86 85 79 72 74 71 61 49 46
6 1 3 7 10 13 17 21 24 26 28 30 30 27 23 24 32 34 38 40 43 48 48 38 48 49 46 54 59 59 61 62 68 73 77 82 89 79 77 74 64 53 44
4 4 7 9 13 17 20 22 25 25 25 23 20 19 23 29 40 40 41 42 46 47 40 46 44 43 45 52 60 68 68 67 63 62 68 71 74 70 67 68 67 61 49
8 6 8 9 13 17 17 18 18 18 17 14 16 26 30 36 44 42 39 40 42 39 38 38 42 37 42 58 70 73 69 69 70 70 69 70 66 66 59 56 56 60 59
7 7 6 8 13 18 16 15 14 10 13 16 21 28 34 34 39 42 40 37 38 32 36 32 34 40 52 61 68 69 67 67 67 71 74 70 60 54 46 46 58 54 56
7 7 9 10 10 12 13 13 14 15 18 20 24 28 34 36 43 39 39 32 33 33 30 33 37 43 51 58 60 58 65 66 72 76 67 54 47 46 36 37 46 58 57
16 15 13 10 10 13 16 17 17 18 17 19 22 26 30 34 31 30 30 28 30 30 30 32 36 41 44 47 52 54 57 62 65 62 62 47 41 38 37 33 33 43 54
19 15 12 12 13 15 19 22 24 22 19 17 19 21 24 25 25 23 21 21 23 27 28 30 30 32 36 45 52 63 61 57 58 56 53 38 38 38 35 40 34 28 41
19 21 21 19 20 22 23 23 21 21 21 23 24 23 23 26 26 20 17 18 18 20 25 30 29 32 33 43 54 63 70 64 56 54 53 40 36 34 33 36 32 30 28
16 19 23 23 24 24 24 26 27 29 32 28 28 29 30 31 34 32 31 29 28 26 26 29 31 34 40 53 59 62 66 72 70 64 56 44 38 32 29 28 34 25 28
14 16 19 19 19 17 18 21 23 35 37 33 32 30 34 37 41 41 40 41 41 40 38 36 36 40 43 53 58 65 68 73 80 76 62 53 45 40 36 33 33 34 32
16 14 14 13 11 13 14 16 29 29 31 33 33 32 29 33 34 34 33 33 36 37 37 39 43 47 53 57 60 69 73 77 84 83 70 59 52 46 39 33 34 38 45
15 16 15 14 13 13 15 16 14 22 28 27 28 30 32 34 35 34 30 29 32 31 34 40 46 51 55 57 58 66 74 76 83 86 78 69 60 50 40 32 26 27 30
14 15 16 16 15 16 19 19 19 21 23 25 30 32 32 32 33 31 29 25 32 40 44 45 44 47 51 57 59 65 73 78 85 92 89 78 67 52 44 34 22 25 10
15 16 16 15 15 16 16 20 22 25 27 27 30 31 31 32 33 36 39 44 45 45 46 43 45 49 52 56 58 66 76 84 88 93 97 87 78 56 44 33 19 16 9
18 18 16 15 16 18 20 22 25 27 29 32 36 41 40 40 43 45 48 48 46 45 46 46 46 49 51 57 61 68 79 88 91 92 99 95 84 65 51 30 13 10 6
22 22 22 22 23 24 24 24 25 25 25 27 32 37 37 40 42 43 44 45 45 45 47 48 46 48 51 56 59 68 77 88 92 92 97 98 88 77 59 32 8 7 2
27 27 26 26 25 25 24 24 24 24 25 25 25 31 36 36 37 39 39 41 42 42 44 46 45 46 50 54 60 68 77 86 91 93 93 95 91 80 60 44 7 5 5
28 28 27 26 25 24 22 22 23 23 24 27 26 27 33 34 35 37 39 40 40 40 43 43 43 47 50 53 58 66 73 81 83 88 84 93 93 81 67 46 24 4 4
27 26 25 24 24 22 22 22 22 25 25 26 29 28 29 32 33 34 37 39 40 39 39 41 43 48 51 55 61 65 69 71 74 77 78 79 85 77 64 48 33 19 8
27 26 24 24 23 22 21 23 24 25 24 27 29 31 30 31 33 35 37 37 40 41 41 42 43 50 54 55 61 63 66 69 70 70 73 73 76 74 66 53 37 24 15
26 26 26 26 26 26 26 24 25 27 27 28 31 33 35 34 35 37 39 40 42 43 44 43 44 48 51 55 63 62 64 66 67 68 68 72 67 74 65 58 45 33 18
Wind_Direction_850mb
154 168 164 159 160 158 156 185 225 254 289 306 314 319 323 326 325 323 318 315 316 319 318 317 318 317 307 305 302 299 295 293 287 292 295 299 298 299 299 299 302 303 306
150 153 156 155 153 140 139 264 286 302 308 313 317 323 326 325 323 321 318 319 321 320 321 318 313 311 311 308 306 306 300 301 292 291 303 307 307 311 304 305 302 298 301
145 142 137 115 83 347 301 299 300 303 308 312 317 321 322 321 321 319 321 321 316 318 317 318 314 310 312 311 311 310 312 311 309 302 302 307 308 308 309 306 299 294 296
138 133 125 119 275 286 288 287 295 301 302 307 310 314 316 318 319 318 317 315 313 313 315 321 314 313 315 317 316 315 312 309 309 309 309 304 304 308 306 304 300 296 297
133 119 79 325 298 288 285 287 287 291 294 297 306 309 312 317 310 309 312 312 313 314 318 316 314 315 315 315 313 314 311 308 307 307 307 308 301 297 297 299 291 294 297
125 106 257 264 274 287 287 287 283 281 288 298 304 304 309 308 304 306 308 312 312 314 318 315 317 318 319 316 317 315 311 309 311 310 310 305 304 297 298 293 287 286 292
80 10 341 332 317 302 295 290 287 290 297 304 309 313 309 308 304 299 297 306 313 316 319 322 322 320 318 316 318 321 324 319 315 309 304 304 307 304 299 287 285 281 279
56 24 358 348 332 324 319 314 311 312 311 310 306 308 311 305 302 305 304 304 309 315 325 327 323 321 320 317 317 318 319 314 318 318 310 302 305 305 290 286 286 284 282
32 15 344 354 350 348 353 341 339 344 319 304 302 309 311 314 315 314 306 306 310 314 328 333 326 324 321 323 324 321 320 322 322 318 310 308 307 311 291 271 270 276 279
41 34 24 9 1 8 1 344 339 329 315 307 310 318 319 317 316 318 316 315 318 326 336 351 350 340 329 327 328 331 327 326 325 326 322 315 307 312 312 284 264 263 273
43 39 35 25 19 9 359 353 351 342 332 330 326 328 325 322 324 328 329 327 332 342 343 352 351 338 330 337 342 338 333 327 328 327 328 321 320 317 312 309 290 263 261
51 43 35 43 43 24 16 12 6 358 348 349 348 352 347 343 339 333 325 323 337 346 346 353 347 336 353 3 3 359 347 342 338 335 334 333 330 329 316 307 296 278 262
54 58 58 60 52 37 25 20 13 8 2 358 1 356 1 360 3 358 357 353 344 352 351 356 345 345 1 10 7 3 5 359 351 346 340 327 329 328 331 325 301 293 276
58 55 56 53 43 33 28 26 22 18 17 11 6 358 358 357 1 8 5 1 359 347 342 346 343 348 3 12 11 5 5 7 6 356 346 339 317 307 309 318 314 299 278
59 55 48 41 41 41 37 28 25 8 5 2 1 358 353 352 353 355 348 348 351 347 337 332 340 348 358 5 3 2 3 3 5 3 353 343 337 316 298 297 303 301 278
72 66 51 55 49 48 46 22 4 5 0 358 355 355 356 351 347 344 341 338 339 339 339 346 355 355 2 3 1 0 1 2 6 5 359 352 345 338 324 307 282 282 288
73 71 66 62 58 51 37 28 15 356 3 10 10 7 4 4 1 357 354 347 348 349 358 3 6 4 3 5 1 359 359 2 5 7 6 2 352 346 336 323 314 316 315
75 71 67 62 51 37 23 22 25 26 24 21 25 22 18 16 14 15 15 18 22 24 23 17 10 4 2 2 1 359 2 4 4 6 7 6 0 352 347 340 333 346 310
78 73 62 49 39 31 32 34 39 40 38 34 35 37 33 30 28 31 32 32 28 24 21 17 10 8 5 3 2 1 5 6 4 4 4 5 4 359 347 347 344 344 212
75 71 66 62 56 57 55 53 50 46 40 36 31 29 27 29 29 28 27 26 24 20 16 15 10 8 3 1 2 1 6 7 7 5 5 5 7 6 358 349 334 339 22
81 79 77 76 73 68 64 60 54 48 39 32 31 27 23 27 24 23 21 19 17 15 14 13 9 5 3 0 358 1 4 7 7 7 6 6 9 5 7 6 331 350 42
84 84 81 77 71 64 58 52 45 38 31 26 22 21 27 25 21 19 15 15 14 10 8 9 7 2 1 0 357 0 3 5 8 8 4 8 11 13 16 28 53 12 213
80 76 74 71 65 58 51 46 40 33 27 23 18 15 16 17 16 14 12 11 9 7 6 4 3 3 3 3 2 2 2 5 7 9 4 7 11 15 22 31 43 355 167
75 73 71 66 61 53 46 38 32 27 26 19 17 15 12 12 11 9 9 9 7 4 0 1 1 360 3 4 3 6 8 6 7 8 9 10 11 18 23 22 21 23 277
68 67 66 61 55 48 40 35 30 26 21 17 14 12 9 6 5 5 4 4 3 1 359 359 359 358 358 4 4 5 7 7 6 6 11 13 12 17 24 25 22 12 4
58 57 56 53 48 44 40 33 27 22 17 12 10 8 7 4 2 0 360 358 357 357 359 358 357 357 358 354 359 2 3 3 5 4 12 12 13 15 19 24 22 15 8